Location: Observatoire
(46.1952°N, 5.3391°E)
Time: 03:03:15
(UTC+01:00)

Altair - Pass Details

Date: 22 February 2026
Orbit: 1502 x 1682 km, 47.2° (Epoch: 13 March)

Event Time Altitude Azimuth Distance (km) Brightness Sun altitude
Rises 06:23:34 0° 264° (W) 4,637 - -12.3°
Reaches altitude 10° 06:26:33 10° 265° (W) 3,664 - -11.7°
Exits shadow 06:27:26 14° 265° (W) 3,386 8.6 -11.6°
Maximum altitude 06:35:50 85° 354° (N) 1,545 7.5 -10.1°
Drops below altitude 10° 06:45:25 10° 84° (E) 3,779 11.1 -8.5°
Sets 06:48:33 0° 86° (E) 4,789 12.2 -7.9°
